Change the Weather History Date:

Wednesday, October 20, 2010

  Actual Average Record
Temperature  
Mean Temperature 48 °F 50 °F  
Max Temperature 60 °F 62 °F 79 °F (1965)
Min Temperature 35 °F 37 °F 18 °F (1974)
Degree Days  
Heating Degree Days 17 16  
Month to date heating degree days 231 247  
Since 1 July heating degree days 314 387  
Cooling Degree Days 0 0  
Month to date cooling degree days 0 0  
Year to date cooling degree days 910 668  
Moisture  
Dew Point 38 °F    
Average Humidity 76    
Maximum Humidity 100    
Minimum Humidity 40    
Precipitation  
Precipitation 0.00 in 0.15 in 2.82 in (1989)
Month to date precipitation 1.93 2.98  
Year to date precipitation 29.98 38.04  
Sea Level Pressure  
Sea Level Pressure 29.85 in    
Wind  
Wind Speed 2 mph (SW)    
Max Wind Speed 12 mph    
Max Gust Speed 18 mph    
Visibility 10 miles    
Events      
T = Trace of Precipitation, MM = Missing Value Source: NWS Daily Summary

Daily Weather History Graph

Daily Weather History Graph

Search for Another Location

Airport or City:

Trip Planner

Search our weather history database for the weather conditions in past years. The results will help you decide how hot, cold, wet, or windy it might be!

Date:

Astronomy

Oct. 20, 2010 Rise Set
Actual Time 7:13 AM EDT 6:06 PM EDT
Civil Twilight 6:45 AM EDT 6:34 PM EDT
Nautical Twilight 6:12 AM EDT 7:07 PM EDT
Astronomical Twilight 5:40 AM EDT 7:39 PM EDT
Moon 4:40 PM EDT 4:51 AM EDT
Length of Visible Light 11h 49m
Length of Day
10h 53m
Waxing Gibbous, 95% of the Moon is Illuminated
Oct 20
Waxing Gibbous
Oct 22
Full
Oct 30
Last Quarter
Nov 6
New
Nov 13
First Quarter

Hourly Weather History & Observations

Time (EDT) Temp. Dew Point Humidity Pressure Visibility Wind Dir Wind Speed Gust Speed Precip Events Conditions
12:53 AM 45.0 °F 42.1 °F 90% 29.91 in 10.0 mi Calm Calm - N/A   Overcast
1:53 AM 42.1 °F 41.0 °F 96% 29.91 in 10.0 mi Calm Calm - N/A   Clear
2:53 AM 39.9 °F 39.0 °F 97% 29.92 in 10.0 mi Calm Calm - N/A   Clear
3:53 AM 37.9 °F 36.0 °F 93% 29.91 in 10.0 mi Calm Calm - N/A   Clear
4:53 AM 37.0 °F 36.0 °F 96% 29.92 in 10.0 mi Calm Calm - N/A   Clear
5:53 AM 37.0 °F 35.1 °F 93% 29.92 in 9.0 mi Calm Calm - N/A   Clear
6:53 AM 36.0 °F 35.1 °F 97% 29.92 in 9.0 mi Calm Calm - N/A   Clear
7:53 AM 37.0 °F 35.1 °F 93% 29.94 in 10.0 mi Calm Calm - N/A   Clear
8:53 AM 43.0 °F 39.9 °F 89% 29.94 in 10.0 mi Calm Calm - N/A   Clear
9:53 AM 48.9 °F 43.0 °F 80% 29.93 in 10.0 mi Calm Calm - N/A   Clear
10:53 AM 52.0 °F 41.0 °F 66% 29.92 in 10.0 mi Calm Calm - N/A   Clear
11:53 AM 54.0 °F 41.0 °F 62% 29.89 in 10.0 mi SW 3.5 mph - N/A   Clear
12:53 PM 57.0 °F 39.0 °F 51% 29.86 in 10.0 mi SW 5.8 mph - N/A   Clear
1:53 PM 57.9 °F 39.0 °F 49% 29.83 in 10.0 mi SW 6.9 mph - N/A   Clear
2:53 PM 59.0 °F 37.0 °F 44% 29.81 in 10.0 mi WSW 10.4 mph - N/A   Scattered Clouds
3:53 PM 59.0 °F 36.0 °F 42% 29.79 in 10.0 mi SW 11.5 mph - N/A   Partly Cloudy
4:53 PM 57.9 °F 36.0 °F 44% 29.78 in 10.0 mi SSW 3.5 mph - N/A   Clear
5:53 PM 57.0 °F 36.0 °F 45% 29.77 in 10.0 mi South 3.5 mph - N/A   Clear
6:53 PM 53.1 °F 39.9 °F 61% 29.78 in 10.0 mi Calm Calm - N/A   Clear
7:53 PM 51.1 °F 39.9 °F 66% 29.78 in 10.0 mi South 3.5 mph - N/A   Clear
8:53 PM 44.1 °F 39.0 °F 82% 29.77 in 10.0 mi Calm Calm - N/A   Clear
9:53 PM 42.1 °F 39.9 °F 92% 29.77 in 10.0 mi Calm Calm - N/A   Clear
10:53 PM 39.0 °F 37.9 °F 96% 29.76 in 10.0 mi Calm Calm - N/A   Clear
11:53 PM 39.0 °F 37.0 °F 93% 29.75 in 10.0 mi Calm Calm - N/A   Clear